Location: Apeadero de Los Molinos-Guadarrama
(40.7091°N, 4.0689°W)
Time: 11:08:45
(UTC+00:00)

Tiangong - Visible Passes

Search period start: 28 September 2021 00:00
Search period end: 08 October 2021 00:00
Orbit: 382 x 385 km, 41.5° (Epoch: 28 September)

Date Brightness Start Highest point End Pass type
(mag) Time Alt. Az. Time Alt. Az. Time Alt. Az.
28 Sep 1.2 05:10:36 20° WSW 05:12:37 66° SSE 05:15:46 10° E visible
29 Sep 2.6 04:13:37 33° ESE 04:13:37 33° ESE 04:15:46 10° E visible
30 Sep 1.0 04:48:47 50° WSW 04:49:30 89° SSE 04:52:41 10° E visible
01 Oct 3.9 03:51:43 18° E 03:51:43 18° E 03:52:42 10° E visible
01 Oct 1.1 05:23:55 15° W 05:26:24 74° N 05:29:33 10° E visible
02 Oct 1.5 04:26:51 61° ENE 04:26:51 61° ENE 04:29:34 10° E visible
03 Oct 1.0 05:01:59 32° WNW 05:03:17 81° N 05:06:26 10° E visible
04 Oct 3.4 04:04:56 25° E 04:04:56 25° E 04:06:25 10° E visible
04 Oct 1.3 05:37:08 11° W 05:40:04 58° SSW 05:43:11 10° ESE visible
05 Oct 0.9 04:40:08 81° S 04:40:08 81° S 04:43:16 10° ESE visible
06 Oct 4.6 03:43:11 10° E 03:43:11 10° E 03:43:15 10° E visible
06 Oct 1.8 05:15:23 23° WSW 05:16:47 37° SSW 05:19:44 10° SE visible
07 Oct 3.1 04:18:30 24° SE 04:18:30 24° SE 04:19:57 10° ESE visible
07 Oct 3.2 05:51:29 10° WSW 05:53:14 14° SSW 05:55:00 10° S visible
